Weather Roundup
Issued by NWS

Home | Current Version | Previous Version | Text Only | Print | Product List | Glossary On
Versions: 1 2 3 4 5 6 7 8 9 10 11 12 13 14 15 16 17 18 19 20 21 22 23 24 25 26 27 28 29 30 31 32 33 34 35 36 37 38 39 40 41 42 43 44 45 46 47 48 49 50
000
NZUS93 KARX 221959
HRRWXR

CURRENT HOURLY OBSERVATIONS ACROSS
MUCH OF THE UPPER MISSISSIPPI VALLEY
NATIONAL WEATHER SERVICE LA CROSSE WI
300 PM CDT TUE JUL 22 2014


...SOUTHEAST MINNESOTA...


CITY           SKY/WX    TMP DP  RH WIND       PRES   REMARKS
ROCHESTER      MOSUNNY   82  68  62 N10       30.05R
ROCHESTER/MAYO CLOUDY    81  63  53 NW8G23    30.03R
WINONA         SUNNY     86  64  48 NW12G18   29.99R
AUSTIN         MOSUNNY   84  64  51 NW13      30.04S
ALBERT LEA     MOSUNNY   82  66  57 NW8       30.05S
DODGE CENTER   MOSUNNY   81  66  61 NW12      30.05S
PRESTON        MOSUNNY   81  74  77 NW10G17   30.04R
OWATONNA       MOSUNNY   82  64  54 NW14      30.05S
FARIBAULT      MOSUNNY   82  59  44 CALM      30.05S
$$

...ELSEWHERE IN MINNESOTA...


CITY           SKY/WX    TMP DP  RH WIND       PRES   REMARKS
MINNEAPOLIS    MOSUNNY   85  60  42 NW17G25   30.03R
INTNL FALLS    PTSUNNY   74  53  48 NW16G23   30.06R
DULUTH         MOSUNNY   79  57  46 NW18G25   30.02R
RED WING       MOSUNNY   84  63  48 NW12G21   30.00R
REDWOOD FALLS  SUNNY     83  58  42 N10G22    30.08S
MANKATO        MOSUNNY   81  63  54 N10G18    30.05F
WORTHINGTON    SUNNY     79  63  57 N16       30.16R
FAIRMONT       MOSUNNY   81  63  54 N12G17    30.08R
$$

...SOUTHWEST WISCONSIN...


CITY           SKY/WX    TMP DP  RH WIND       PRES   REMARKS
LA CROSSE      SUNNY     89  68  49 N14       29.96R HX  93
PRAIRIE DU CHI MOSUNNY   91  71  50 W10       29.94R HX  97
BOSCOBEL       MOSUNNY   94  74  52 W9        29.94R HX 104
LONE ROCK      NOT AVBL
PLATTEVILLE    MOSUNNY   88  78  72 W10G17    29.98R HX 102
FORT MC COY    SUNNY     87  67  50 NW12G17   29.95S HX  90
VIROQUA        FAIR      87  74  64 NW15      29.97R HX  95
WIS DELLS      PTSUNNY   90  70  52 W13       29.93R HX  95
$$

...ELSEWHERE IN WISCONSIN...


CITY           SKY/WX    TMP DP  RH WIND       PRES   REMARKS
MILWAUKEE      PTSUNNY   89  73  59 SW17G24   29.89S HX  97
MADISON        MOSUNNY   90  76  63 VRB7      29.92R HX 101
GREEN BAY      MOSUNNY   90  74  59 W9        29.85F HX  99
EAU CLAIRE     MOSUNNY   85  65  51 NW15      29.98R
BLACK RVR FLS  FAIR      86  63  46 NW9       29.96R
MEDFORD        PTSUNNY   79  65  62 NW10G23   29.97R
WAUSAU         SUNNY     85  65  51 W17       29.92R
WIS RAPIDS     SUNNY     88  67  49 NW15      29.95R HX  91
MARSHFIELD     SUNNY     84  66  54 NW15      29.96R
RICE LAKE      PTSUNNY   78  61  56 W12       30.03R
$$

...NORTHEAST IOWA...


CITY           SKY/WX    TMP DP  RH WIND       PRES   REMARKS
WATERLOO       MOSUNNY   92  74  55 NW10      29.97S HX 101
DUBUQUE        SUNNY     85  77  77 W16       29.97F HX  95
DECORAH        SUNNY     86  72  62 W8G17     29.98R HX  92
MASON CITY     SUNNY     86  68  54 N17       30.05S
CHARLES CITY   SUNNY     86  70  58 NW15      30.02R HX  90
OELWEIN        MOSUNNY   90  73  58 NW8       29.99S HX  98
$$

...ELSEWHERE IN IOWA...


CITY           SKY/WX    TMP DP  RH WIND       PRES   REMARKS
DES MOINES     CLOUDY    90  77  65 N15       30.01R HX 103
IOWA CITY      LGT RAIN  84  79  85 CALM      29.95F HX  96
FORT DODGE     MOSUNNY   81  68  65 N6        30.06R
MARSHALLTOWN   PTSUNNY   91  77  63 N9        29.98R HX 104
CEDAR RAPIDS   CLOUDY    86  77  74 NW12      29.96S HX  97
$$

...NORTHERN ILLINOIS...


CITY           SKY/WX    TMP DP  RH WIND       PRES   REMARKS
CHICAGO-OHARE  MOSUNNY   89  70  53 SW13G23   29.93F HX  94
DUPAGE         MOSUNNY   89  73  59 SW14      29.93F HX  97
CHICAGO-MIDWAY MOSUNNY   91  72  53 S17       29.95F HX  98
MOLINE         PTSUNNY   88  76  67 W8        29.97R HX  99
ROCKFORD       PTSUNNY   89  75  63 SW9       29.95S HX  99
STERLING       SUNNY     91  77  62 W9        29.96R HX 105
PEORIA         PTSUNNY   89  73  59 SW16      29.99F HX  97
$$

NOTE: "FAIR" INDICATES FEW OR NO CLOUDS BELOW 12,000 FEET WITH NO
SIGNIFICANT WEATHER AND/OR OBSTRUCTIONS TO VISIBILITY. WIND
SPEEDS ARE IN MILES-PER-HOUR.



USA.gov is the U.S. government's official web portal to all federal, state and local government web resources and services.